GW2216 Weather Reports


time (UTC)temp
F
wind
direction
speed
knots
gust
knots
rain 1hr
in
rain 24hr
in
rain mn
in
humidity
%
barometer
mb
20260506034535 58 211 5.2 7.8 0.00 0.15 0.01 57 1013.2
20260506033029 58 172 3.5 8.7 0.00 0.15 0.01 58 1013.0
20260506031532 59 198 5.2 8.7 0.00 0.15 0.01 57 1012.9
20260506030039 59 247 2.6 9.6 0.00 0.15 0.01 56 1012.7
20260506024553 59 228 3.5 8.7 0.00 0.15 0.01 55 1012.5
20260506023030 61 215 5.2 9.6 0.00 0.15 0.01 51 1012.4
20260506021531 63 217 3.5 7.0 0.00 0.15 0.01 48 1012.3
20260506020031 65 290 0.9 7.0 0.00 0.15 0.01 41 1012.1
20260506014531 67 326 2.6 7.0 0.00 0.30 0.01 39 1012.1
20260506013040 68 316 1.7 7.8 0.00 0.30 0.01 38 1012.0
20260506011533 68 331 4.3 8.7 0.00 0.30 0.01 37 1012.1
20260506010032 68 303 3.5 9.6 0.00 0.30 0.01 37 1012.0
20260506004532 69 36 2.6 10.4 0.00 0.42 0.01 34 1012.1
20260506003035 69 5 2.6 7.8 0.00 0.42 0.01 37 1012.0
20260506001529 67 352 5.2 9.6 0.00 0.42 0.01 38 1012.1
20260506000029 70 5 2.6 10.4 0.00 0.42 0.01 37 1012.1
20260505234536 70 71 4.3 10.4 0.00 0.42 0.01 34 1012.0
20260505233030 66 352 2.6 7.8 0.00 0.42 0.01 40 1012.0
20260505231532 67 301 3.5 12.2 0.00 0.42 0.01 40 1012.2
20260505230049 65 53 0.9 5.2 0.00 0.42 0.01 40 1012.4
20260505224532 66 122 1.7 7.0 0.00 0.42 0.01 44 1012.6
20260505223029 66 236 0.9 4.3 0.00 0.42 0.01 41 1012.8
20260505221535 67 0 1.7 9.6 0.00 0.42 0.01 47 1012.9
20260505220033 66 309 1.7 6.1 0.00 0.42 0.01 49 1013.2
20260505214531 65 226 4.3 8.7 0.00 0.42 0.01 46 1013.3
20260505213047 66 162 0.9 7.0 0.00 0.42 0.01 44 1013.4
20260505211531 65 317 0.9 7.0 0.00 0.42 0.01 50 1013.6
20260505210032 63 63 2.6 8.7 0.00 0.42 0.01 49 1013.8
20260505204531 63 43 1.7 7.0 0.00 0.43 0.01 51 1013.8
20260505203041 61 0 0.0 7.8 0.00 0.43 0.01 52 1013.9
20260505201529 61 0 2.6 7.8 0.00 0.43 0.01 55 1014.0
20260505200034 62 0 0.9 7.0 0.00 0.43 0.01 57 1014.0
20260505194530 59 22 2.6 7.8 0.00 0.43 0.01 67 1014.1
20260505193031 60 57 2.6 7.8 0.00 0.43 0.01 68 1014.0
20260505191532 57 22 3.5 8.7 0.00 0.43 0.01 71 1014.0
20260505190030 58 313 0.9 6.1 0.00 0.43 0.01 72 1014.0
20260505184529 58 42 0.0 6.1 0.00 0.44 0.01 76 1013.9
20260505183029 56 0 1.7 6.1 0.00 0.44 0.01 78 1014.0
20260505181531 54 77 1.7 7.0 0.00 0.44 0.01 77 1014.1
20260505180033 52 0 0.0 4.3 0.00 0.44 0.01 79 1014.0
20260505174532 52 0 0.0 3.5 0.00 0.44 0.01 79 1013.8
20260505173040 51 119 0.0 2.6 0.00 0.44 0.01 84 1013.7
20260505171531 49 196 0.0 3.5 0.00 0.44 0.01 85 1013.6
20260505170033 49 174 0.9 2.6 0.00 0.44 0.01 86 1013.6
20260505164547 48 109 0.0 3.5 0.00 0.44 0.01 89 1013.5
20260505163031 47 159 0.0 3.5 0.00 0.44 0.01 89 1013.4
20260505161530 47 106 0.0 3.5 0.00 0.44 0.01 90 1013.2
20260505153047 45 142 0.0 3.5 0.00 0.44 0.01 90 1012.9
20260505151600 45 125 0.0 2.6 0.00 0.44 0.01 90 1012.7
20260505124530 43 0 0.0 1.7 0.00 0.44 0.01 93 1011.3
20260505123034 43 332 0.0 1.7 0.00 0.44 0.01 93 1011.2
20260505121536 43 0 0.0 0.0 0.00 0.44 0.01 93 1011.2
20260505120030 43 20 0.9 1.7 0.00 0.44 0.01 93 1011.2
20260505114538 43 0 0.0 2.6 0.00 0.44 0.01 93 1011.2
20260505113028 43 0 0.0 2.6 0.00 0.44 0.01 93 1011.1
20260505111536 44 0 0.0 0.0 0.01 0.44 0.01 94 1011.0
20260505101532 43 249 0.9 2.6 0.00 0.43 0.00 93 1011.3
20260505100041 43 0 0.0 2.6 0.00 0.43 0.00 94 1011.4
20260505094529 42 0 0.0 0.0 0.00 0.43 0.00 94 1011.5
20260505093029 42 0 0.0 0.0 0.00 0.43 0.00 93 1011.6
20260505091547 42 0 0.0 1.7 0.00 0.43 0.00 93 1011.6
20260505090049 43 0 0.0 0.0 0.00 0.43 0.00 93 1011.6
20260505084537 43 0 0.0 0.0 0.00 0.43 0.00 93 1011.8
20260505083039 43 0 0.0 2.6 0.00 0.43 0.00 93 1012.1
20260505081548 44 0 0.0 0.0 0.00 0.43 0.00 92 1012.2
20260505080039 44 94 0.0 2.6 0.00 0.43 0.00 92 1011.9
20260505074530 43 242 1.7 3.5 0.01 0.43 0.00 92 1011.5
20260505073030 43 228 1.7 3.5 0.02 0.43 0.00 92 1012.3
20260505071531 43 0 0.0 0.0 0.02 0.43 0.00 92 1012.4
20260505070031 43 0 0.0 3.5 0.02 0.43 0.00 91 1012.1
20260505064533 43 146 1.7 5.2 0.01 0.42 0.42 92 1011.7
20260505063039 43 179 2.6 4.3 0.00 0.41 0.41 92 1011.4
20260505061534 43 138 1.7 5.2 0.01 0.41 0.41 92 1011.5
20260505060032 43 147 2.6 6.1 0.01 0.41 0.41 92 1011.4
20260505054532 43 208 2.6 5.2 0.01 0.41 0.41 92 1011.5
20260505053032 43 180 2.6 4.3 0.01 0.41 0.41 92 1011.6
20260505051532 43 0 0.0 2.6 0.00 0.40 0.40 92 1011.9
20260505041531 43 177 0.0 6.1 0.04 0.40 0.40 92 1011.5
20260505040038 44 352 4.3 9.6 0.11 0.40 0.40 91 1011.6